Location: Newark
(39.7092°N, 111.8314°W)
Time: 05:31:37
(UTC+00:00)

Hubble Space Telescope - Visible Passes

Search period start: 21 February 2020 00:00
Search period end: 02 March 2020 00:00
Orbit: 536 x 540 km, 28.5° (Epoch: 20 February)

Date Brightness Start Highest point End Pass type
(mag) Time Alt. Az. Time Alt. Az. Time Alt. Az.
21 Feb 3.1 02:55:33 10° SSW 02:57:12 13° S 02:57:12 13° S visible
22 Feb 2.9 02:44:32 10° SSW 02:46:54 15° S 02:47:17 15° SSE visible
23 Feb 2.8 02:33:36 10° SSW 02:36:09 16° S 02:37:20 14° SSE visible
24 Feb 2.9 02:22:44 10° SW 02:25:24 17° S 02:27:23 12° SE visible
25 Feb 2.9 02:11:56 10° SW 02:14:40 17° S 02:17:23 10° SE visible
26 Feb 2.9 02:01:11 10° SW 02:03:55 17° S 02:06:39 10° SE visible
26 Feb 3.6 03:42:42 10° SW 03:42:49 10° SW 03:42:49 10° SW visible
27 Feb 3.0 01:50:29 10° SW 01:53:10 17° S 01:55:51 10° SE visible
27 Feb 3.5 03:32:43 10° SSW 03:32:55 10° SSW 03:32:55 10° SSW visible
28 Feb 3.1 01:39:50 10° SW 01:42:25 16° S 01:45:01 10° SSE visible
